map of CZL home
CZL - Airport
Location
City:  Constantine, Constantine, Algeria
Name:Mohamed Boudiaf International Airport
ICAO:DABC
IATA:CZL

Details
Type:Airport (Aerodrome, Airfield)
Use:Public/Civil, International (customs port of entry)
Latitude:3617'07"N (36.285278)
Longitude:637'09"E (6.619167)
Elevation:2316 ft (706 m)
Variation:1.81E (WMM2015 magnetic declination)
0.10 annual change
Runways:2
Longest:9843 × 148 ft (3000 × 45 m)

Time
Time Zone:UTC+1
Local Time:

Weather
METAR:DABC 152200Z 00000KT 9999 SCT033 14/13 Q1016
TAF:DABC 151700Z 1518/1618 33014KT 9999 FEW026TCU SCT030 BKN040 PROB40
TEMPO 1518/1524 3000 -TSRA BKN015
BECMG 1521/1523 25010KT
TEMPO 2602/2610 2000 TSRA FEW023CB BKN015
BECMG 1611/1613 03014KT

Related Locations
Nearby:
Farthest:GIS: 11939 mi / 19214 km
Gisborne, GIS, NZ

Find:

   beyond  
but within

Other Information
Maps:
NOTAMs:
Links:
Sources:

  
  • flag of Algeria
  

Sectional Chart

Flight Planning
at skyvector.com

Satellite Image

Google Maps Satellite view

 

Copyright © 2004-2018 Karl L. Swartz. All rights reserved.
The Great Circle Mapper name and logo are trademarks of the Great Circle Mapper.
All other trademarks mentioned herein belong to their respective owners.
Please see credits for attibutions and further copyright information.

  Follow gcmap on Facebook Follow gcmap on Twitter Follow gcmap on Google+ GCmap on LinkedIn

hCard Microformat

Geo Microformat